Find Starlink 30348

NORAD ID: 57712 Int'l Des: 2023-129 Owner: SPXS Country: US Constellation: starlink operational
LEOCIRCULAR

当前视图

正在加载3D地球...

About Starlink 30348

Starlink 30348 (NORAD 57712) is a starlink constellation satellite (v2 mini) launched Aug 27, 2023 by SPXS of US. It operates in LEO, CIRCULAR orbit with a mass of 730.00 kg.

即将过境

Passes for default location (London). Set your location on the main map for personalized predictions.

高度历史

Loading altitude history...

两行轨道根数

1 57712U 23129Q 26237.07394731 .00021706 00000-0 79585-3 0 9996
2 57712 43.0002 247.0556 0001108 262.3436 97.7290 15.27585185166439
Epoch: Aug 25, 2026 • Age: 11 hours

当前状态

高度 485.0 km
远地点 / 近地点 N/A
速度 7.62 km/s
星下点 -12.48°S, 66.85°E
发射日期 Aug 27, 2023
运行时间 2.9 years
类型 internet

技术详情

分类 Payload
质量 730.00 kg
干质量 700.00 kg
总质量 730.00 kg
长度 0.30 m
直径 4.10 m
跨度 29.00 m
形状 Box + pan
制造商 SPXS
平台类型 Starlink V2M
阶段状态 In Orbit
所有者/国家 SPXS/US

Most Searched